Location: Saluda
(35.2377°N, 82.3468°W)
Time: 04:35:39
(UTC+00:00)

Vanguard 2 - Pass Details

Date: 09 October 2022
Orbit: 553 x 2933 km, 32.9° (Epoch: 26 November)

Event Time Altitude Azimuth Distance (km) Brightness Sun altitude
Rises 18:32:11 0° 267° (W) 4,285 11.6 44.7°
Reaches altitude 10° 18:34:36 10° 266° (W) 3,567 11.4 44.4°
Maximum altitude 18:44:22 81° 181° (S) 2,069 10.7 43.5°
Drops below altitude 10° 19:00:16 10° 97° (E) 5,519 11.8 41.7°
Sets 19:05:00 0° 97° (E) 6,692 12.1 41.1°
